TimeEST,TemperatureF,Dew PointF,Humidity,Sea Level PressureIn,VisibilityMPH,Wind Direction,Wind SpeedMPH,Gust SpeedMPH,PrecipitationIn,Events,Conditions,WindDirDegrees,DateUTC
12:54 AM,39.9,30.9,70,30.03,10.0,Calm,Calm,-,N/A,,Overcast,0,2013-12-02 05:54:00
1:54 AM,41.0,30.0,65,30.02,10.0,Calm,Calm,-,N/A,,Overcast,0,2013-12-02 06:54:00
2:54 AM,41.0,30.0,65,30.02,10.0,WSW,4.6,-,N/A,,Overcast,250,2013-12-02 07:54:00
3:54 AM,41.0,30.0,65,30.01,10.0,West,3.5,-,N/A,,Overcast,260,2013-12-02 08:54:00
4:54 AM,41.0,30.9,67,29.99,10.0,Calm,Calm,-,N/A,,Overcast,0,2013-12-02 09:54:00
5:54 AM,39.9,32.0,73,29.99,10.0,Calm,Calm,-,N/A,,Overcast,0,2013-12-02 10:54:00
6:39 AM,39.2,30.2,70,29.98,8.0,Calm,Calm,-,N/A,,Overcast,0,2013-12-02 11:39:00
6:54 AM,41.0,30.9,67,29.98,8.0,Calm,Calm,-,N/A,,Overcast,0,2013-12-02 11:54:00
7:54 AM,41.0,30.9,67,29.99,7.0,Calm,Calm,-,N/A,,Overcast,0,2013-12-02 12:54:00
8:54 AM,42.1,32.0,67,30.00,7.0,Calm,Calm,-,N/A,,Overcast,0,2013-12-02 13:54:00
9:54 AM,43.0,30.9,62,30.00,7.0,SE,4.6,-,N/A,,Overcast,130,2013-12-02 14:54:00
10:54 AM,45.0,30.0,56,29.98,7.0,Calm,Calm,-,N/A,,Overcast,0,2013-12-02 15:54:00
11:54 AM,46.0,28.0,50,29.96,7.0,Calm,Calm,-,N/A,,Overcast,0,2013-12-02 16:54:00
12:50 PM,48.2,28.4,46,29.92,10.0,Calm,Calm,-,N/A,,Mostly Cloudy,0,2013-12-02 17:50:00
12:54 PM,48.9,28.9,46,29.92,10.0,Calm,Calm,-,N/A,,Mostly Cloudy,0,2013-12-02 17:54:00
1:54 PM,50.0,26.1,39,29.90,10.0,SSE,4.6,-,N/A,,Scattered Clouds,150,2013-12-02 18:54:00
2:54 PM,50.0,28.0,43,29.92,10.0,Calm,Calm,-,N/A,,Overcast,0,2013-12-02 19:54:00
3:54 PM,50.0,27.0,41,29.91,10.0,Calm,Calm,-,N/A,,Overcast,0,2013-12-02 20:54:00
4:54 PM,48.9,27.0,43,29.91,10.0,North,4.6,-,N/A,,Overcast,350,2013-12-02 21:54:00
5:54 PM,45.0,30.9,58,29.90,10.0,Calm,Calm,-,N/A,,Overcast,0,2013-12-02 22:54:00
6:54 PM,42.1,35.1,76,29.90,10.0,Calm,Calm,-,N/A,,Overcast,0,2013-12-02 23:54:00
7:54 PM,42.1,32.0,67,29.92,10.0,Calm,Calm,-,N/A,,Mostly Cloudy,0,2013-12-03 00:54:00
8:33 PM,39.2,32.0,75,29.91,8.0,Calm,Calm,-,N/A,,Mostly Cloudy,0,2013-12-03 01:33:00
8:54 PM,39.0,32.0,76,29.90,8.0,Calm,Calm,-,N/A,,Mostly Cloudy,0,2013-12-03 01:54:00
9:54 PM,41.0,30.0,65,29.91,8.0,NE,3.5,-,N/A,,Mostly Cloudy,50,2013-12-03 02:54:00
10:54 PM,42.1,33.1,70,29.91,8.0,Calm,Calm,-,N/A,,Overcast,0,2013-12-03 03:54:00
11:54 PM,42.1,32.0,67,29.91,8.0,NNE,3.5,-,N/A,,Overcast,20,2013-12-03 04:54:00